SL-16 DEB

Satellite information

Favourite Embed

Satellite Type and Status

DEBRISIN ORBIT

Key statistics

Satellite SL-16 DEB at a glance.

Uptime

11882

Days in orbit

Revolutions

≈ 14.3

Per day

Orbit

LEO

Low Earth Orbit

Inclination

71.0

Latest

Satellite identification and parameters

Extended collection of information and parameters for SL-16 DEB.

Object identification

Identified? True

Debris? True

Object name: SL-16 DEB

International designator: 1992-093JT

Object number (NORAD): 39302

Object ID (CCSDS): 39302

Country: COMMONWEALTH OF INDEPENDENT STATES (CIS)

Current information (Y/N): Y

RCS size: SMALL

Orbital parameters

Period: 100.839 minutes

Inclination: 70.9844 deg

SMA: 7176.488 km

Apoapsis: 887.904 km

Periapsis: 708.803 km

RAAN: 22.3822 deg

Eccentricy: 0.0124783

Argument of periapsis: 131.4829 deg

Mean anomaly: 349.2897 deg

Mean motion: 14.28021688 rev/day

Mean motion (dot): 0.00004355 rev/day2

B* drag term: 0.0016311 1/REarth

Two-line elements (TLE)

Creation date: July 3, 2025, 5:26 p.m.

Reference frame: TEME

Reference center: EARTH

Epoch: July 3, 2025, 5:27 a.m. UTC

TLE line 0: 0 SL-16 DEB

TLE line 1: 1 39302U 92093JT 25184.22744506 .00004355 00000-0 16311-2 0 9991

TLE line 2: 2 39302 70.9844 22.3822 0124783 131.4829 349.2897 14.28021688608380

Live tracking on map

Real-time ground track for satellite SL-16 DEB.

In-orbit conjunctions

A list of the most updated potential collisions computed for object SL-16 DEB.

Target Orbit TCA Probability of collision Miss distance Type
DMSP 5D-2 F13 DEB SSO 2024-11-15 09:55:15 0.0001543456 301.0 (m) DEBRIS
CZ-6A DEB LEO 2024-11-13 10:35:23 0.0001310253 331.0 (m) DEBRIS

Associated space launch

Second generation ELING satellite

SL-16 DEB was lifted into orbit during the mission ‘Zenit-2 | Tselina-2 12’, on board a Zenit-2 space rocket.

The launch took place on Dec. 25, 1992, 5:56 a.m. from 45/1.

For more information about the launch, click the button.

Launch to space Zenit-2 | Tselina-2 12
Zenit-2 | Tselina-2 12

Agency: N/A

Status: Launch Successful

Launch date: Dec. 25, 1992, 5:56 a.m. UTC

Rocket: Zenit-2

Launch pad: 45/1

Location: Baikonur Cosmodrome, Republic of Kazakhstan

...

Latest news about this satellite

There are no fresh news available about this satellite. Check back as we update our databases every day.


Newsletter sign-up

Weekly statistics, charts and insights to help you stay on top of the space industry.